,,Stat5,,Stat1,,Stat2,,Stat3,,Stat4,,Wind1,,Wind1,
time,status,PA1M_AVG,status,PR1M_SUM,status,RH1M_AVG,status,SR1M_AVG,status,TA1M_AVG,status,W1dAve1m,status,W1sAve1m,
2001-11-19, 00:00:00,VALID,919.556,VALID,0,VALID,92.6873,VALID,-0.0339617,VALID,18.8556,VALID,7,VALID,0,
2001-11-19, 00:01:00,VALID,919.552,VALID,0,VALID,92.6478,VALID,-0.0509425,VALID,18.8489,VALID,7,VALID,0,
2001-11-19, 00:02:00,VALID,919.529,VALID,0,VALID,92.6364,VALID,0,VALID,18.8522,VALID,7,VALID,0,
2001-11-19, 00:03:00,VALID,919.525,VALID,0,VALID,92.6949,VALID,-0.0339617,VALID,18.8522,VALID,7,VALID,0,
2001-11-19, 00:04:00,VALID,919.509,VALID,0,VALID,92.7051,VALID,-0.0509425,VALID,18.8358,VALID,7,VALID,0,
2001-11-19, 00:05:00,VALID,919.487,VALID,0,VALID,92.7368,VALID,-0.0509425,VALID,18.8462,VALID,7,VALID,0,
2001-11-19, 00:06:00,VALID,919.467,VALID,0,VALID,92.6631,VALID,-0.0679233,VALID,18.8589,VALID,7,VALID,0,
2001-11-19, 00:07:00,VALID,919.463,VALID,0,VALID,92.6364,VALID,-0.0679233,VALID,18.8591,VALID,7,VALID,0,
2001-11-19, 00:08:00,VALID,919.445,VALID,0,VALID,92.5283,VALID,-0.101885,VALID,18.8589,VALID,7,VALID,0,
2001-11-19, 00:09:00,VALID,919.45,VALID,0,VALID,92.3414,VALID,-0.0849042,VALID,18.8715,VALID,7,VALID,0.239063,
2001-11-19, 00:10:00,VALID,919.447,VALID,0,VALID,92.3579,VALID,-0.0679233,VALID,18.8718,VALID,7,VALID,0.130008,
2001-11-19, 00:11:00,VALID,919.437,VALID,0,VALID,92.4139,VALID,-0.0679233,VALID,18.8715,VALID,7,VALID,0.0292969,
2001-11-19, 00:12:00,VALID,919.408,VALID,0,VALID,92.5143,VALID,-0.0509425,VALID,18.8589,VALID,7,VALID,0.0769531,
2001-11-19, 00:13:00,VALID,919.408,VALID,0,VALID,92.5804,VALID,-0.0509425,VALID,18.8591,VALID,7,VALID,0,
2001-11-19, 00:14:00,VALID,919.397,VALID,0,VALID,92.6033,VALID,-0.0339617,VALID,18.8487,VALID,7,VALID,0,
2001-11-19, 00:15:00,VALID,919.378,VALID,0,VALID,92.6784,VALID,-0.0169808,VALID,18.8522,VALID,7,VALID,0,
2001-11-19, 00:16:00,VALID,919.356,VALID,0,VALID,92.7063,VALID,-0.0679233,VALID,18.8489,VALID,7,VALID,0,
2001-11-19, 00:17:00,VALID,919.349,VALID,0,VALID,92.6962,VALID,-0.0509425,VALID,18.8626,VALID,7,VALID,0,
2001-11-19, 00:18:00,VALID,919.331,VALID,0,VALID,92.7063,VALID,-0.0849042,VALID,18.8395,VALID,7,VALID,0,
2001-11-19, 00:19:00,VALID,919.321,VALID,0,VALID,92.7343,VALID,-0.0339617,VALID,18.8226,VALID,7,VALID,0,
2001-11-19, 00:20:00,VALID,919.32,VALID,0,VALID,92.714,VALID,0.0679233,VALID,18.8184,VALID,7,VALID,0.000390625,
2001-11-19, 00:21:00,VALID,919.304,VALID,0,VALID,92.7343,VALID,0.0339617,VALID,18.8152,VALID,7,VALID,0.0677083,
2001-11-19, 00:22:00,VALID,919.28,VALID,0,VALID,92.8246,VALID,0,VALID,18.8219,VALID,7,VALID,0,
2001-11-19, 00:23:00,VALID,919.264,VALID,0,VALID,92.8259,VALID,0.0169808,VALID,18.8256,VALID,7,VALID,0,
2001-11-19, 00:24:00,VALID,919.236,VALID,0,VALID,92.8335,VALID,0,VALID,18.809,VALID,7,VALID,0,
2001-11-19, 00:25:00,VALID,919.215,VALID,0,VALID,92.8386,VALID,0.0169808,VALID,18.8189,VALID,7,VALID,0,
2001-11-19, 00:26:00,VALID,919.206,VALID,0,VALID,92.9111,VALID,0.0169808,VALID,18.8125,VALID,7,VALID,0,
2001-11-19, 00:27:00,VALID,919.19,VALID,0,VALID,92.8335,VALID,0,VALID,18.803,VALID,7,VALID,0,
2001-11-19, 00:28:00,VALID,919.176,VALID,0,VALID,92.8538,VALID,0,VALID,18.7769,VALID,7,VALID,0,
2001-11-19, 00:29:00,VALID,919.157,VALID,0,VALID,92.9174,VALID,0.0509425,VALID,18.7605,VALID,7,VALID,0,
2001-11-19, 00:30:00,VALID,919.138,VALID,0,VALID,92.9543,VALID,0.0169808,VALID,18.728,VALID,7,VALID,0,
2001-11-19, 00:31:00,VALID,919.121,VALID,0,VALID,92.9963,VALID,0,VALID,18.7153,VALID,7,VALID,0.0332532,
2001-11-19, 00:32:00,VALID,919.098,VALID,0,VALID,93.1056,VALID,0.0509425,VALID,18.7024,VALID,7,VALID,0,
2001-11-19, 00:33:00,VALID,919.066,VALID,0,VALID,93.1819,VALID,0.0339617,VALID,18.6798,VALID,7,VALID,0,
2001-11-19, 00:34:00,VALID,919.032,VALID,0,VALID,93.3421,VALID,-0.0169808,VALID,18.6646,VALID,7,VALID,0.220703,
2001-11-19, 00:35:00,VALID,919.008,VALID,0,VALID,93.4642,VALID,-0.0169808,VALID,18.6392,VALID,7,VALID,0.197213,
2001-11-19, 00:36:00,VALID,918.993,VALID,0,VALID,93.585,VALID,-0.0169808,VALID,18.6164,VALID,7,VALID,0.0423828,
2001-11-19, 00:37:00,VALID,918.979,VALID,0,VALID,93.6346,VALID,-0.0339617,VALID,18.6139,VALID,7,VALID,0.13762,
2001-11-19, 00:38:00,VALID,918.944,VALID,0,VALID,93.6778,VALID,-0.0169808,VALID,18.6002,VALID,7,VALID,0.190789,
2001-11-19, 00:39:00,VALID,918.921,VALID,0,VALID,93.7465,VALID,-0.0169808,VALID,18.6007,VALID,7,VALID,0.0528846,
2001-11-19, 00:40:00,VALID,918.899,VALID,0,VALID,93.7351,VALID,-0.0169808,VALID,18.5903,VALID,7,VALID,0,
2001-11-19, 00:41:00,VALID,918.895,VALID,0,VALID,93.7694,VALID,-0.0169808,VALID,18.5905,VALID,7,VALID,0.0140224,
2001-11-19, 00:42:00,VALID,918.881,VALID,0,VALID,93.7948,VALID,0,VALID,18.5873,VALID,7,VALID,0.0988281,
2001-11-19, 00:43:00,VALID,918.863,VALID,0,VALID,93.8139,VALID,0,VALID,18.6002,VALID,7,VALID,0,
2001-11-19, 00:44:00,VALID,918.838,VALID,0,VALID,93.7974,VALID,0,VALID,18.6127,VALID,7,VALID,0,
2001-11-19, 00:45:00,VALID,918.818,VALID,0,VALID,93.7096,VALID,0,VALID,18.6129,VALID,7,VALID,0,
2001-11-19, 00:46:00,VALID,918.796,VALID,0,VALID,93.6435,VALID,-0.0339617,VALID,18.6099,VALID,7,VALID,0,
2001-11-19, 00:47:00,VALID,918.781,VALID,0,VALID,93.6804,VALID,-0.0339617,VALID,18.594,VALID,7,VALID,0,
2001-11-19, 00:48:00,VALID,918.785,VALID,0,VALID,93.7452,VALID,0,VALID,18.5811,VALID,7,VALID,0,
2001-11-19, 00:49:00,VALID,918.757,VALID,0,VALID,93.8075,VALID,0,VALID,18.5649,VALID,7,VALID,0,
2001-11-19, 00:50:00,VALID,918.754,VALID,0,VALID,93.936,VALID,-0.0169808,VALID,18.5486,VALID,7,VALID,0.0847656,
2001-11-19, 00:51:00,VALID,918.725,VALID,0,VALID,93.9525,VALID,-0.0339617,VALID,18.5463,VALID,7,VALID,0.208404,
2001-11-19, 00:52:00,VALID,918.71,VALID,0,VALID,93.9601,VALID,-0.0169808,VALID,18.4969,VALID,7,VALID,0.337891,
2001-11-19, 00:53:00,VALID,918.705,VALID,0,VALID,94.0542,VALID,-0.0339617,VALID,18.4713,VALID,7,VALID,0.236779,
2001-11-19, 00:54:00,VALID,918.683,VALID,0,VALID,94.2717,VALID,-0.0339617,VALID,18.4452,VALID,7,VALID,0.227796,
2001-11-19, 00:55:00,VALID,918.656,VALID,0,VALID,94.3632,VALID,-0.0509425,VALID,18.4265,VALID,7,VALID,0.212941,
2001-11-19, 00:56:00,VALID,918.648,VALID,0,VALID,94.5145,VALID,0,VALID,18.4072,VALID,7,VALID,0.171258,
2001-11-19, 00:57:00,VALID,918.62,VALID,0,VALID,94.6608,VALID,-0.0169808,VALID,18.3966,VALID,7,VALID,0.186899,
2001-11-19, 00:58:00,VALID,918.594,VALID,0,VALID,94.7015,VALID,-0.0339617,VALID,18.3876,VALID,7,VALID,0.166211,
2001-11-19, 00:59:00,VALID,918.587,VALID,0,VALID,94.7994,VALID,0,VALID,18.365,VALID,7,VALID,0.172297,
2001-11-19, 01:00:00,VALID,918.571,VALID,0,VALID,94.9367,VALID,0,VALID,18.3456,VALID,4,VALID,0.235352,
2001-11-19, 01:01:00,VALID,918.56,VALID,0,VALID,95.069,VALID,0,VALID,18.3652,VALID,3,VALID,0.0635016,
2001-11-19, 01:02:00,VALID,918.552,VALID,0,VALID,95.0855,VALID,-0.0169808,VALID,18.3354,VALID,3,VALID,0.00616776,
2001-11-19, 01:03:00,VALID,918.538,VALID,0,VALID,95.069,VALID,0,VALID,18.329,VALID,3,VALID,0,
2001-11-19, 01:04:00,VALID,918.532,VALID,0,VALID,95.0931,VALID,0,VALID,18.3163,VALID,3,VALID,0,
2001-11-19, 01:05:00,VALID,918.524,VALID,0,VALID,95.1631,VALID,0,VALID,18.3036,VALID,3,VALID,0,
2001-11-19, 01:06:00,VALID,918.505,VALID,0,VALID,95.1262,VALID,-0.0169808,VALID,18.2902,VALID,3,VALID,0,
2001-11-19, 01:07:00,VALID,918.5,VALID,0,VALID,95.2025,VALID,0,VALID,18.2844,VALID,3,VALID,0,
2001-11-19, 01:08:00,VALID,918.5,VALID,0,VALID,95.2775,VALID,-0.0169808,VALID,18.284,VALID,3,VALID,0,
2001-11-19, 01:09:00,VALID,918.483,VALID,0,VALID,95.4009,VALID,-0.0169808,VALID,18.2907,VALID,3,VALID,0,
2001-11-19, 01:10:00,VALID,918.478,VALID,0,VALID,95.4199,VALID,-0.0339617,VALID,18.3066,VALID,3,VALID,0,
2001-11-19, 01:11:00,VALID,918.465,VALID,0,VALID,95.2813,VALID,-0.0169808,VALID,18.3163,VALID,4,VALID,0,
2001-11-19, 01:12:00,VALID,918.444,VALID,0,VALID,95.1478,VALID,-0.0169808,VALID,18.3264,VALID,4,VALID,0,
2001-11-19, 01:13:00,VALID,918.432,VALID,0,VALID,95.1262,VALID,0,VALID,18.3257,VALID,4,VALID,0,
2001-11-19, 01:14:00,VALID,918.427,VALID,0,VALID,95.13,VALID,-0.0169808,VALID,18.3223,VALID,4,VALID,0,
2001-11-19, 01:15:00,VALID,918.414,VALID,0,VALID,95.2025,VALID,-0.0169808,VALID,18.349,VALID,4,VALID,0,
2001-11-19, 01:16:00,VALID,918.41,VALID,0,VALID,95.1224,VALID,0,VALID,18.3684,VALID,4,VALID,0,
2001-11-19, 01:17:00,VALID,918.383,VALID,0,VALID,95.0486,VALID,-0.0339617,VALID,18.3656,VALID,4,VALID,0,
2001-11-19, 01:18:00,VALID,918.367,VALID,0,VALID,95.0461,VALID,-0.0339617,VALID,18.3493,VALID,4,VALID,0,
2001-11-19, 01:19:00,VALID,918.348,VALID,0,VALID,95.1198,VALID,0,VALID,18.3493,VALID,4,VALID,0,
2001-11-19, 01:20:00,VALID,918.344,VALID,0,VALID,95.0537,VALID,-0.0169808,VALID,18.3324,VALID,4,VALID,0,
2001-11-19, 01:21:00,VALID,918.318,VALID,0,VALID,95.0397,VALID,0,VALID,18.3195,VALID,4,VALID,0,
2001-11-19, 01:22:00,VALID,918.3,VALID,0,VALID,95.0385,VALID,-0.0169808,VALID,18.3101,VALID,4,VALID,0,
2001-11-19, 01:23:00,VALID,918.289,VALID,0,VALID,95.0168,VALID,-0.0339617,VALID,18.3004,VALID,4,VALID,0,
2001-11-19, 01:24:00,VALID,918.277,VALID,0,VALID,95.0283,VALID,-0.0169808,VALID,18.2879,VALID,4,VALID,0,
2001-11-19, 01:25:00,VALID,918.269,VALID,0,VALID,95.2317,VALID,0,VALID,18.2907,VALID,4,VALID,0,
2001-11-19, 01:26:00,VALID,918.272,VALID,0,VALID,95.4276,VALID,0,VALID,18.3096,VALID,4,VALID,0,
2001-11-19, 01:27:00,VALID,918.259,VALID,0,VALID,95.4263,VALID,-0.0169808,VALID,18.3361,VALID,4,VALID,0,
2001-11-19, 01:28:00,VALID,918.23,VALID,0,VALID,95.4708,VALID,-0.0169808,VALID,18.3516,VALID,4,VALID,0,
2001-11-19, 01:29:00,VALID,918.228,VALID,0,VALID,95.397,VALID,-0.0169808,VALID,18.385,VALID,4,VALID,0,
2001-11-19, 01:30:00,VALID,918.201,VALID,0,VALID,95.3309,VALID,-0.0509425,VALID,18.3938,VALID,4,VALID,0,
2001-11-19, 01:31:00,VALID,918.188,VALID,0,VALID,95.1376,VALID,-0.0339617,VALID,18.4074,VALID,4,VALID,0,
2001-11-19, 01:32:00,VALID,918.17,VALID,0,VALID,94.9583,VALID,-0.0169808,VALID,18.3615,VALID,4,VALID,0,
2001-11-19, 01:33:00,VALID,918.137,VALID,0,VALID,94.8515,VALID,-0.0679233,VALID,18.3234,VALID,4,VALID,0,
2001-11-19, 01:34:00,VALID,918.121,VALID,0,VALID,94.8744,VALID,-0.0849042,VALID,18.2978,VALID,4,VALID,0,
2001-11-19, 01:35:00,VALID,918.088,VALID,0,VALID,94.9316,VALID,-0.0509425,VALID,18.269,VALID,4,VALID,0,
2001-11-19, 01:36:00,VALID,918.06,VALID,0,VALID,95.1122,VALID,-0.0849042,VALID,18.2464,VALID,4,VALID,0,
2001-11-19, 01:37:00,VALID,918.025,VALID,0,VALID,95.2559,VALID,-0.0849042,VALID,18.2268,VALID,4,VALID,0,
2001-11-19, 01:38:00,VALID,918.004,VALID,0,VALID,95.3487,VALID,-0.0509425,VALID,18.2009,VALID,4,VALID,0,
2001-11-19, 01:39:00,VALID,917.992,VALID,0,VALID,95.4822,VALID,-0.0679233,VALID,18.1883,VALID,4,VALID,0,
2001-11-19, 01:40:00,VALID,917.977,VALID,0,VALID,95.5611,VALID,-0.0849042,VALID,18.1788,VALID,4,VALID,0,
2001-11-19, 01:41:00,VALID,917.955,VALID,0,VALID,95.6298,VALID,-0.101885,VALID,18.1398,VALID,4,VALID,0,
2001-11-19, 01:42:00,VALID,917.927,VALID,0,VALID,95.7633,VALID,-0.0679233,VALID,18.1234,VALID,4,VALID,0,
2001-11-19, 01:43:00,VALID,917.917,VALID,0,VALID,95.8548,VALID,-0.0849042,VALID,18.1103,VALID,4,VALID,0,
2001-11-19, 01:44:00,VALID,917.899,VALID,0,VALID,95.9311,VALID,-0.0849042,VALID,18.1011,VALID,4,VALID,0,
2001-11-19, 01:45:00,VALID,917.896,VALID,0,VALID,95.9413,VALID,-0.0849042,VALID,18.0815,VALID,4,VALID,0,
2001-11-19, 01:46:00,VALID,917.904,VALID,0,VALID,95.8968,VALID,-0.101885,VALID,18.0722,VALID,4,VALID,0,
2001-11-19, 01:47:00,VALID,917.896,VALID,0,VALID,95.9426,VALID,-0.0849042,VALID,18.0494,VALID,4,VALID,0,
2001-11-19, 01:48:00,VALID,917.888,VALID,0,VALID,96.0379,VALID,-0.0849042,VALID,18.0268,VALID,4,VALID,0,
2001-11-19, 01:49:00,VALID,917.896,VALID,0,VALID,96.1702,VALID,-0.101885,VALID,18.0139,VALID,4,VALID,0,
2001-11-19, 01:50:00,VALID,917.893,VALID,0,VALID,96.2325,VALID,-0.101885,VALID,18.027,VALID,4,VALID,0.0104852,
2001-11-19, 01:51:00,VALID,917.892,VALID,0,VALID,96.1842,VALID,-0.0849042,VALID,18.0268,VALID,4,VALID,0,
2001-11-19, 01:52:00,VALID,917.878,VALID,0,VALID,96.1829,VALID,-0.0849042,VALID,18.0365,VALID,4,VALID,0,
2001-11-19, 01:53:00,VALID,917.868,VALID,0,VALID,96.1079,VALID,-0.101885,VALID,18.0494,VALID,4,VALID,0.0332532,
2001-11-19, 01:54:00,VALID,917.855,VALID,0,VALID,96.0061,VALID,-0.0849042,VALID,18.0429,VALID,17,VALID,0.383008,
2001-11-19, 01:55:00,VALID,917.818,VALID,0,VALID,95.8892,VALID,-0.0849042,VALID,18.0653,VALID,46,VALID,0.485853,
2001-11-19, 01:56:00,VALID,917.799,VALID,0,VALID,95.7099,VALID,-0.0679233,VALID,18.0591,VALID,46,VALID,0.399609,
2001-11-19, 01:57:00,VALID,917.793,VALID,0,VALID,95.6488,VALID,-0.0679233,VALID,18.0593,VALID,46,VALID,0.245994,
2001-11-19, 01:58:00,VALID,917.803,VALID,0,VALID,95.6984,VALID,-0.0679233,VALID,18.0459,VALID,46,VALID,0.0133635,
2001-11-19, 01:59:00,VALID,917.797,VALID,0,VALID,95.7188,VALID,-0.0849042,VALID,18.0589,VALID,46,VALID,0,
2001-11-19, 02:00:00,VALID,917.785,VALID,0,VALID,95.6971,VALID,-0.0169808,VALID,18.0554,VALID,46,VALID,0,
2001-11-19, 02:01:00,VALID,917.777,VALID,0,VALID,95.7035,VALID,-0.0849042,VALID,18.0655,VALID,38,VALID,0.0512821,
2001-11-19, 02:02:00,VALID,917.761,VALID,0,VALID,95.7137,VALID,-0.0849042,VALID,18.0785,VALID,37,VALID,0.0564453,
2001-11-19, 02:03:00,VALID,917.74,VALID,0,VALID,95.7531,VALID,-0.0509425,VALID,18.081,VALID,33,VALID,0.236909,
2001-11-19, 02:04:00,VALID,917.722,VALID,0,VALID,95.7162,VALID,-0.0339617,VALID,18.1258,VALID,29,VALID,0.294141,
2001-11-19, 02:05:00,VALID,917.72,VALID,0,VALID,95.4606,VALID,0.0339617,VALID,18.132,VALID,29,VALID,0.228566,
2001-11-19, 02:06:00,VALID,917.721,VALID,0,VALID,95.3729,VALID,0.0169808,VALID,18.1548,VALID,29,VALID,0.214227,
2001-11-19, 02:07:00,VALID,917.72,VALID,0,VALID,95.2495,VALID,0.0169808,VALID,18.158,VALID,29,VALID,0.119992,
2001-11-19, 02:08:00,VALID,917.707,VALID,0,VALID,95.1262,VALID,0.0169808,VALID,18.1546,VALID,24,VALID,0.107319,
2001-11-19, 02:09:00,VALID,917.707,VALID,0,VALID,95.1338,VALID,0.0169808,VALID,18.1479,VALID,350,VALID,0.310296,
2001-11-19, 02:10:00,VALID,917.701,VALID,0,VALID,95.1198,VALID,0.0169808,VALID,18.1873,VALID,350,VALID,0.0619141,
2001-11-19, 02:11:00,VALID,917.679,VALID,0,VALID,94.9914,VALID,0.0169808,VALID,18.1774,VALID,350,VALID,0.0116132,
2001-11-19, 02:12:00,VALID,917.673,VALID,0,VALID,95.0639,VALID,0,VALID,18.1938,VALID,350,VALID,0.137109,
2001-11-19, 02:13:00,VALID,917.669,VALID,0,VALID,94.7282,VALID,0,VALID,18.1677,VALID,350,VALID,0.0643029,
2001-11-19, 02:14:00,VALID,917.656,VALID,0,VALID,94.7345,VALID,0.0339617,VALID,18.1322,VALID,350,VALID,0,
2001-11-19, 02:15:00,VALID,917.676,VALID,0,VALID,94.8935,VALID,0,VALID,18.1061,VALID,348,VALID,0.0186298,
2001-11-19, 02:16:00,VALID,917.677,VALID,0,VALID,95.0626,VALID,0.0339617,VALID,18.1223,VALID,348,VALID,0.00123355,
2001-11-19, 02:17:00,VALID,917.688,VALID,0,VALID,95.1618,VALID,0,VALID,18.129,VALID,348,VALID,0,
2001-11-19, 02:18:00,VALID,917.684,VALID,0,VALID,95.1669,VALID,0,VALID,18.1292,VALID,348,VALID,0,
2001-11-19, 02:19:00,VALID,917.676,VALID,0,VALID,95.2076,VALID,-0.0169808,VALID,18.1195,VALID,348,VALID,0,
2001-11-19, 02:20:00,VALID,917.668,VALID,0,VALID,95.411,VALID,-0.0509425,VALID,18.1426,VALID,348,VALID,0,
2001-11-19, 02:21:00,VALID,917.659,VALID,0,VALID,95.4009,VALID,-0.0509425,VALID,18.179,VALID,348,VALID,0,
2001-11-19, 02:22:00,VALID,917.64,VALID,0,VALID,95.2801,VALID,-0.0169808,VALID,18.1813,VALID,348,VALID,0,
2001-11-19, 02:23:00,VALID,917.64,VALID,0,VALID,95.1923,VALID,-0.0679233,VALID,18.188,VALID,348,VALID,0,
2001-11-19, 02:24:00,VALID,917.648,VALID,0,VALID,95.1567,VALID,-0.0339617,VALID,18.2007,VALID,348,VALID,0,
2001-11-19, 02:25:00,VALID,917.66,VALID,0,VALID,95.0626,VALID,0,VALID,18.2139,VALID,348,VALID,0.0408654,
2001-11-19, 02:26:00,VALID,917.668,VALID,0,VALID,94.9405,VALID,-0.0339617,VALID,18.2365,VALID,348,VALID,0,
2001-11-19, 02:27:00,VALID,917.656,VALID,0,VALID,94.8477,VALID,-0.0339617,VALID,18.2395,VALID,348,VALID,0,
2001-11-19, 02:28:00,VALID,917.66,VALID,0,VALID,94.7562,VALID,-0.0679233,VALID,18.2462,VALID,348,VALID,0,
2001-11-19, 02:29:00,VALID,917.653,VALID,0,VALID,94.6366,VALID,-0.0339617,VALID,18.2494,VALID,348,VALID,0,
2001-11-19, 02:30:00,VALID,917.655,VALID,0,VALID,94.5832,VALID,-0.0169808,VALID,18.266,VALID,348,VALID,0,
2001-11-19, 02:31:00,VALID,917.651,VALID,0,VALID,94.526,VALID,0,VALID,18.2526,VALID,348,VALID,0,
2001-11-19, 02:32:00,VALID,917.666,VALID,0,VALID,94.484,VALID,-0.0169808,VALID,18.2526,VALID,348,VALID,0,
2001-11-19, 02:33:00,VALID,917.668,VALID,0,VALID,94.5222,VALID,-0.0169808,VALID,18.2397,VALID,348,VALID,0,
2001-11-19, 02:34:00,VALID,917.666,VALID,0,VALID,94.54,VALID,0.0339617,VALID,18.2325,VALID,348,VALID,0,
2001-11-19, 02:35:00,VALID,917.664,VALID,0,VALID,94.4357,VALID,0.0339617,VALID,18.2058,VALID,348,VALID,0,
2001-11-19, 02:36:00,VALID,917.663,VALID,0,VALID,94.4052,VALID,0.0509425,VALID,18.1839,VALID,348,VALID,0.0488281,
2001-11-19, 02:37:00,VALID,917.649,VALID,0,VALID,94.5349,VALID,0.0339617,VALID,18.1546,VALID,348,VALID,0.320713,
2001-11-19, 02:38:00,VALID,917.636,VALID,0,VALID,94.5463,VALID,0.0849042,VALID,18.1223,VALID,348,VALID,0.0530428,
2001-11-19, 02:39:00,VALID,917.615,VALID,0,VALID,94.7155,VALID,0.101885,VALID,18.0965,VALID,348,VALID,0,
2001-11-19, 02:40:00,VALID,917.594,VALID,0,VALID,94.9914,VALID,0.101885,VALID,18.0895,VALID,348,VALID,0.0709293,
2001-11-19, 02:41:00,VALID,917.59,VALID,0,VALID,95.0232,VALID,0.0169808,VALID,18.0838,VALID,356,VALID,0.294872,
2001-11-19, 02:42:00,VALID,917.56,VALID,0,VALID,95.0563,VALID,0.0849042,VALID,18.0443,VALID,29,VALID,0.311914,
2001-11-19, 02:43:00,VALID,917.539,VALID,0,VALID,95.1872,VALID,0.0509425,VALID,18.0351,VALID,29,VALID,0.208404,
2001-11-19, 02:44:00,VALID,917.53,VALID,0,VALID,95.5382,VALID,0.0679233,VALID,18.0284,VALID,29,VALID,0.182422,
2001-11-19, 02:45:00,VALID,917.521,VALID,0,VALID,95.809,VALID,0.0679233,VALID,18.0573,VALID,29,VALID,0.107572,
2001-11-19, 02:46:00,VALID,917.51,VALID,0,VALID,95.7353,VALID,0.0339617,VALID,18.0803,VALID,29,VALID,0.178865,
2001-11-19, 02:47:00,VALID,917.502,VALID,0,VALID,95.715,VALID,0.0849042,VALID,18.0734,VALID,29,VALID,0.0989583,
2001-11-19, 02:48:00,VALID,917.49,VALID,0,VALID,95.7264,VALID,0.0679233,VALID,18.0868,VALID,29,VALID,0.0847039,
2001-11-19, 02:49:00,VALID,917.474,VALID,0,VALID,95.7874,VALID,0,VALID,18.1038,VALID,29,VALID,0.109175,
2001-11-19, 02:50:00,VALID,917.442,VALID,0,VALID,95.5763,VALID,-0.0339617,VALID,18.1011,VALID,29,VALID,0,
2001-11-19, 02:51:00,VALID,917.428,VALID,0,VALID,95.5051,VALID,-0.0509425,VALID,18.0688,VALID,29,VALID,0.271748,
2001-11-19, 02:52:00,VALID,917.418,VALID,0,VALID,95.453,VALID,-0.0679233,VALID,18.0492,VALID,26,VALID,0.563672,
2001-11-19, 02:53:00,VALID,917.403,VALID,0,VALID,95.7238,VALID,-0.0339617,VALID,18.0526,VALID,11,VALID,0.777043,
2001-11-19, 02:54:00,VALID,917.387,VALID,0,VALID,95.8752,VALID,-0.0169808,VALID,18.1045,VALID,11,VALID,0.987048,
2001-11-19, 02:55:00,VALID,917.363,VALID,0,VALID,95.7048,VALID,-0.0339617,VALID,18.146,VALID,22,VALID,0.828926,
2001-11-19, 02:56:00,VALID,917.339,VALID,0,VALID,95.5064,VALID,-0.0339617,VALID,18.1756,VALID,21,VALID,1.12007,
2001-11-19, 02:57:00,VALID,917.309,VALID,0,VALID,95.4187,VALID,-0.0339617,VALID,18.2042,VALID,16,VALID,1.07472,
2001-11-19, 02:58:00,VALID,917.299,VALID,0,VALID,95.1567,VALID,-0.0339617,VALID,18.2464,VALID,16,VALID,0.821875,
2001-11-19, 02:59:00,VALID,917.275,VALID,0,VALID,95.0639,VALID,-0.0339617,VALID,18.2787,VALID,20,VALID,0.856419,
2001-11-19, 03:00:00,VALID,917.248,VALID,0,VALID,94.9126,VALID,-0.0169808,VALID,18.2916,VALID,19,VALID,0.944336,
2001-11-19, 03:01:00,VALID,917.241,VALID,0,VALID,94.8108,VALID,-0.0679233,VALID,18.272,VALID,14,VALID,0.756611,
2001-11-19, 03:02:00,VALID,917.236,VALID,0,VALID,94.774,VALID,-0.0509425,VALID,18.269,VALID,11,VALID,0.683799,
2001-11-19, 03:03:00,VALID,917.216,VALID,0,VALID,94.8248,VALID,-0.0509425,VALID,18.2561,VALID,6,VALID,0.780849,
2001-11-19, 03:04:00,VALID,917.184,VALID,0,VALID,94.8884,VALID,-0.0509425,VALID,18.2402,VALID,7,VALID,0.715872,
2001-11-19, 03:05:00,VALID,917.181,VALID,0,VALID,95.0397,VALID,-0.0339617,VALID,18.2434,VALID,9,VALID,0.801282,
2001-11-19, 03:06:00,VALID,917.155,VALID,0,VALID,95.0079,VALID,-0.0339617,VALID,18.2429,VALID,4,VALID,0.474023,
2001-11-19, 03:07:00,VALID,917.14,VALID,0,VALID,94.966,VALID,-0.0339617,VALID,18.2298,VALID,7,VALID,0.626478,
2001-11-19, 03:08:00,VALID,917.142,VALID,0,VALID,95.0842,VALID,-0.0339617,VALID,18.2395,VALID,8,VALID,0.535156,
2001-11-19, 03:09:00,VALID,917.139,VALID,0,VALID,95.2139,VALID,-0.0509425,VALID,18.2625,VALID,6,VALID,0.617588,
2001-11-19, 03:10:00,VALID,917.136,VALID,0,VALID,95.3564,VALID,0,VALID,18.3239,VALID,4,VALID,0.747327,
2001-11-19, 03:11:00,VALID,917.136,VALID,0,VALID,95.3805,VALID,0,VALID,18.3726,VALID,5,VALID,0.814103,
2001-11-19, 03:12:00,VALID,917.143,VALID,0,VALID,95.0957,VALID,-0.0509425,VALID,18.4561,VALID,5,VALID,0.61287,
2001-11-19, 03:13:00,VALID,917.15,VALID,0,VALID,94.4878,VALID,-0.0509425,VALID,18.4849,VALID,6,VALID,0.358373,
2001-11-19, 03:14:00,VALID,917.154,VALID,0,VALID,94.1572,VALID,-0.0339617,VALID,18.4851,VALID,6,VALID,0.319922,
2001-11-19, 03:15:00,VALID,917.157,VALID,0,VALID,94.0873,VALID,0,VALID,18.4722,VALID,6,VALID,0.268581,
2001-11-19, 03:16:00,VALID,917.179,VALID,0,VALID,94.2691,VALID,-0.0339617,VALID,18.4722,VALID,5,VALID,0.274219,
2001-11-19, 03:17:00,VALID,917.173,VALID,0,VALID,94.4878,VALID,-0.101885,VALID,18.4983,VALID,4,VALID,0.0985577,
2001-11-19, 03:18:00,VALID,917.171,VALID,0,VALID,94.2742,VALID,-0.0679233,VALID,18.4978,VALID,4,VALID,0.00328947,
2001-11-19, 03:19:00,VALID,917.163,VALID,0,VALID,93.9856,VALID,-0.0339617,VALID,18.4584,VALID,4,VALID,0.0817308,
2001-11-19, 03:20:00,VALID,917.176,VALID,0,VALID,94.2386,VALID,0,VALID,18.4355,VALID,344,VALID,0.376439,
2001-11-19, 03:21:00,VALID,917.193,VALID,0,VALID,94.5171,VALID,0,VALID,18.4551,VALID,339,VALID,0.0614984,
2001-11-19, 03:22:00,VALID,917.206,VALID,0,VALID,94.4751,VALID,0,VALID,18.4452,VALID,339,VALID,0,
2001-11-19, 03:23:00,VALID,917.238,VALID,0,VALID,94.4332,VALID,0.0169808,VALID,18.442,VALID,293,VALID,0.306799,
2001-11-19, 03:24:00,VALID,917.239,VALID,0,VALID,94.4408,VALID,0.0339617,VALID,18.4288,VALID,282,VALID,0.0117188,
2001-11-19, 03:25:00,VALID,917.225,VALID,0,VALID,94.4675,VALID,0.0169808,VALID,18.4095,VALID,279,VALID,0.0641026,
2001-11-19, 03:26:00,VALID,917.224,VALID,0,VALID,94.4611,VALID,0.0339617,VALID,18.3839,VALID,187,VALID,0.315584,
2001-11-19, 03:27:00,VALID,917.219,VALID,0,VALID,94.6595,VALID,0.0339617,VALID,18.3613,VALID,187,VALID,0.251402,
2001-11-19, 03:28:00,VALID,917.242,VALID,0,VALID,94.9075,VALID,0.0339617,VALID,18.3583,VALID,187,VALID,0.212788,
2001-11-19, 03:29:00,VALID,917.252,VALID,0,VALID,95.1084,VALID,0.0339617,VALID,18.3486,VALID,187,VALID,0.00300481,
2001-11-19, 03:30:00,VALID,917.269,VALID,0,VALID,95.1567,VALID,0.0169808,VALID,18.3354,VALID,187,VALID,0.233008,
2001-11-19, 03:31:00,VALID,917.285,VALID,0,VALID,95.1898,VALID,0.0339617,VALID,18.332,VALID,187,VALID,0.314611,
2001-11-19, 03:32:00,VALID,917.281,VALID,0,VALID,95.1707,VALID,0.0509425,VALID,18.3126,VALID,192,VALID,0.295703,
2001-11-19, 03:33:00,VALID,917.297,VALID,0,VALID,95.2165,VALID,0.0339617,VALID,18.2967,VALID,196,VALID,0.0739183,
2001-11-19, 03:34:00,VALID,917.291,VALID,0,VALID,95.2178,VALID,0.0509425,VALID,18.287,VALID,196,VALID,0.176809,
2001-11-19, 03:35:00,VALID,917.276,VALID,0,VALID,95.2076,VALID,0,VALID,18.2577,VALID,196,VALID,0.114183,
2001-11-19, 03:36:00,VALID,917.272,VALID,0,VALID,94.5362,VALID,0.0169808,VALID,18.177,VALID,196,VALID,0.0232319,
2001-11-19, 03:37:00,VALID,917.252,VALID,0,VALID,94.437,VALID,0.0169808,VALID,18.0577,VALID,81,VALID,0.540465,
2001-11-19, 03:38:00,VALID,917.247,VALID,0,VALID,94.8401,VALID,0,VALID,18.003,VALID,35,VALID,0.508398,
2001-11-19, 03:39:00,VALID,917.249,VALID,0,VALID,94.9533,VALID,0.0169808,VALID,17.9154,VALID,38,VALID,0.148226,